Date String (YYYY-MM-DD hh:mm:ss) UTC,Instrument flags,absolute air pressure of the measurement (hPa),sample flow rate (lpm),inlet stack bypass flow (lpm),air temperature of the measurement (°C),ambient temperature measured by the external sensor (°C),aerosol sample conditioner tube jacket temperature (°C),OPC LED temperature (°C),internal box temperature (°C),relative humidity of the measurement (%),span deviation,mass concentration of particles derived from Lorenz-Mie calculation of OPC scattering (μg/m³),mass concentration of particles derived from Lorenz-Mie calculation of OPC scattering (μg/m³),mass concentration of particles derived from Lorenz-Mie calculation of OPC scattering (μg/m³)
DateTimeUTC,F1_M11,P_M11,Q1_M11,Q2_M11,T1_M11,T2_M11,T3_M11,T4_M11,T5_M11,U1_M11,ZSPAN_M11,X0_M11,X2_M11,X1_M11
2023-08-06 18:00:00,SystemResetWarning,0838.2,5.00,000.00,029.6,027.1,000.0,038.2,031.1,28.1,-002.1,0012.13,0007.21,0006.84
2023-08-06 18:01:00,SystemResetWarning,0838.2,5.00,000.00,029.6,027.4,000.0,038.2,031.1,27.9,-002.1,0012.13,0007.23,0006.88
2023-08-06 18:02:00,SystemResetWarning,0838.1,5.00,000.00,029.6,027.6,000.0,038.2,031.2,27.8,-001.7,0012.05,0007.26,0006.93
2023-08-06 18:03:00,SystemResetWarning,0838.2,5.00,000.00,029.6,027.8,000.0,038.2,031.2,28.4,-001.7,0012.15,0007.30,0006.99
2023-08-06 18:04:00,SystemResetWarning,0838.2,4.99,000.00,029.6,028.0,000.0,038.2,031.2,28.5,-001.4,0012.60,0007.37,0007.03
2023-08-06 18:05:00,SystemResetWarning,0838.2,4.99,000.00,029.7,028.1,000.0,038.2,031.3,28.0,-001.5,0012.72,0007.38,0007.04
2023-08-06 18:06:00,SystemResetWarning,0838.1,5.00,000.00,029.7,028.2,000.0,038.2,031.3,27.8,-001.2,0012.64,0007.33,0007.00
2023-08-06 18:07:00,SystemResetWarning,0838.2,5.01,000.00,029.7,028.3,000.0,038.2,031.3,28.4,-001.0,0012.08,0007.29,0006.97
2023-08-06 18:08:00,SystemResetWarning,0838.2,5.01,000.00,029.7,028.4,000.0,038.3,031.4,28.4,-000.9,0011.77,0007.25,0006.92
2023-08-06 18:09:00,SystemResetWarning,0838.1,5.00,000.00,029.8,028.5,000.0,038.3,031.4,28.7,-000.8,0011.66,0007.22,0006.86
2023-08-06 18:10:00,SystemResetWarning,0838.1,5.00,000.00,029.8,028.6,000.0,038.3,031.4,28.6,-000.4,0012.20,0007.22,0006.82
2023-08-06 18:11:00,SystemResetWarning,0838.2,4.99,000.00,029.8,028.6,000.0,038.3,031.5,28.4,0000.1,0011.71,0007.22,0006.81
2023-08-06 18:12:00,SystemResetWarning,0838.1,5.00,000.00,029.8,028.7,000.0,038.3,031.5,28.1,0000.9,0011.86,0007.24,0006.79
2023-08-06 18:13:00,SystemResetWarning,0838.2,5.00,000.00,029.9,028.7,000.0,038.4,031.5,27.8,0001.0,0011.87,0007.24,0006.76
2023-08-06 18:14:00,SystemResetWarning,0838.2,5.01,000.00,029.9,028.7,000.0,038.4,031.5,27.7,0001.0,0011.80,0007.22,0006.74
2023-08-06 18:15:00,SystemResetWarning,0838.2,5.01,000.00,029.9,028.7,000.0,038.4,031.5,28.0,0001.0,0011.44,0007.19,0006.73
2023-08-06 18:16:00,SystemResetWarning,0838.2,4.98,000.00,029.9,027.2,000.0,038.3,031.4,28.2,0000.6,0011.41,0007.22,0006.76
2023-08-06 18:17:00,SystemResetWarning,0838.2,5.01,000.00,029.8,025.9,000.0,038.2,031.1,28.0,0000.3,0012.22,0007.25,0006.80
2023-08-06 18:18:00,SystemResetWarning,0838.0,5.01,000.00,029.7,025.8,000.0,038.1,030.9,28.0,0000.0,0012.24,0007.27,0006.83
2023-08-06 18:19:00,SystemResetWarning,0838.0,5.00,000.00,029.6,026.1,000.0,038.2,030.9,28.4,0000.2,0012.07,0007.31,0006.88
2023-08-06 18:20:00,SystemResetWarning,0838.0,5.00,000.00,029.6,026.5,000.0,038.2,031.0,28.5,0000.3,0011.90,0007.35,0006.95
2023-08-06 18:21:00,SystemResetWarning,0838.0,4.99,000.00,029.6,026.8,000.0,038.2,031.0,28.2,0000.2,0011.42,0007.38,0007.00
2023-08-06 18:22:00,SystemResetWarning,0837.9,5.00,000.00,029.6,027.2,000.0,038.2,031.1,28.1,0000.7,0011.02,0007.42,0007.02
2023-08-06 18:23:00,SystemResetWarning,0838.0,5.01,000.00,029.6,027.4,000.0,038.2,031.1,28.3,0000.4,0010.99,0007.46,0007.06
2023-08-06 18:24:00,SystemResetWarning,0838.0,5.00,000.00,029.6,027.7,000.0,038.2,031.2,28.2,0000.2,0011.05,0007.49,0007.10
2023-08-06 18:25:00,SystemResetWarning,0838.0,5.00,000.00,029.6,027.9,000.0,038.2,031.2,28.1,0000.1,0011.02,0007.50,0007.11
2023-08-06 18:26:00,SystemResetWarning,0838.0,4.99,000.00,029.6,028.0,000.0,038.2,031.3,27.6,0000.4,0011.16,0007.48,0007.11
2023-08-06 18:27:00,SystemResetWarning,0838.0,4.99,000.00,029.7,028.2,000.0,038.2,031.3,27.7,0000.6,0011.11,0007.52,0007.12
2023-08-06 18:28:00,SystemResetWarning,0838.0,5.00,000.00,029.7,028.3,000.0,038.2,031.3,28.0,0000.7,0010.56,0007.59,0007.16
2023-08-06 18:29:00,SystemResetWarning,0838.0,5.01,000.00,029.7,028.4,000.0,038.3,031.4,27.7,0000.7,0010.66,0007.63,0007.17
2023-08-06 18:30:00,SystemResetWarning,0837.8,5.01,000.00,029.7,028.5,000.0,038.3,031.4,27.6,0000.5,0010.77,0007.65,0007.18
2023-08-06 18:31:00,SystemResetWarning,0837.8,5.00,000.00,029.8,028.5,000.0,038.3,031.4,27.5,0000.6,0010.60,0007.65,0007.17
2023-08-06 18:32:00,SystemResetWarning,0837.8,4.99,000.00,029.8,028.6,000.0,038.3,031.4,27.5,0001.0,0010.54,0007.65,0007.14
2023-08-06 18:33:00,SystemResetWarning,0837.8,4.99,000.00,029.8,028.6,000.0,038.3,031.4,27.7,0000.2,0010.49,0007.60,0007.11
2023-08-06 18:34:00,SystemResetWarning,0837.8,4.99,000.00,029.8,028.7,000.0,038.3,031.5,27.7,0000.1,0010.52,0007.56,0007.06
2023-08-06 18:35:00,SystemResetWarning,0837.9,4.99,000.00,029.9,028.7,000.0,038.4,031.5,27.5,-000.1,0010.40,0007.51,0007.02
2023-08-06 18:36:00,SystemResetWarning,0837.9,5.00,000.00,029.9,027.7,000.0,038.3,031.4,27.4,-000.5,0010.51,0007.53,0007.02
2023-08-06 18:37:00,SystemResetWarning,0837.8,5.01,000.00,029.8,026.1,000.0,038.1,031.2,27.6,-000.9,0010.47,0007.56,0007.04
2023-08-06 18:38:00,SystemResetWarning,0837.8,5.01,000.00,029.7,025.7,000.0,038.1,031.0,27.8,-000.9,0010.47,0007.51,0007.01
2023-08-06 18:39:00,SystemResetWarning,0837.7,5.01,000.00,029.6,025.9,000.0,038.1,030.8,28.0,-001.0,0010.30,0007.43,0006.96
2023-08-06 18:40:00,SystemResetWarning,0837.7,5.00,000.00,029.6,026.3,000.0,038.1,030.9,28.3,-001.3,0010.31,0007.41,0006.92
2023-08-06 18:41:00,SystemResetWarning,0837.6,5.00,000.00,029.5,026.6,000.0,038.1,030.9,28.8,-001.0,0010.31,0007.42,0006.90
2023-08-06 18:42:00,SystemResetWarning,0837.6,5.00,000.00,029.5,027.0,000.0,038.2,031.0,28.8,-001.4,0010.37,0007.43,0006.88
2023-08-06 18:43:00,SystemResetWarning,0837.6,5.00,000.00,029.5,027.3,000.0,038.2,031.0,28.7,-001.7,0010.38,0007.41,0006.88
2023-08-06 18:44:00,SystemResetWarning,0837.6,5.00,000.00,029.6,027.5,000.0,038.2,031.1,28.6,-001.8,0010.37,0007.41,0006.89
2023-08-06 18:45:00,SystemResetWarning,0837.7,5.00,000.00,029.6,027.7,000.0,038.2,031.1,28.5,-002.0,0010.35,0007.43,0006.91
2023-08-06 18:46:00,SystemResetWarning,0837.6,5.00,000.00,029.6,027.9,000.0,038.2,031.2,28.3,-002.0,0010.48,0007.45,0006.92
2023-08-06 18:47:00,SystemResetWarning,0837.6,5.00,000.00,029.6,028.0,000.0,038.2,031.2,28.7,-001.7,0010.46,0007.45,0006.93
2023-08-06 18:48:00,SystemResetWarning,0837.6,4.99,000.00,029.6,028.2,000.0,038.2,031.2,29.0,-001.9,0010.53,0007.49,0006.97
2023-08-06 18:49:00,SystemResetWarning,0837.6,4.99,000.00,029.6,028.3,000.0,038.2,031.3,28.5,-002.0,0010.47,0007.54,0007.01
2023-08-06 18:50:00,SystemResetWarning,0837.6,5.00,000.00,029.7,028.3,000.0,038.2,031.3,28.1,-001.9,0010.63,0007.63,0007.06
2023-08-06 18:51:00,SystemResetWarning,0837.7,5.00,000.00,029.7,028.4,000.0,038.2,031.3,28.0,-001.6,0010.78,0007.72,0007.14
2023-08-06 18:52:00,SystemResetWarning,0837.6,5.00,000.00,029.7,028.5,000.0,038.2,031.3,28.0,-001.9,0010.83,0007.75,0007.19
2023-08-06 18:53:00,SystemResetWarning,0837.5,5.00,000.00,029.7,028.5,000.0,038.2,031.4,28.2,-002.1,0010.88,0007.80,0007.27
2023-08-06 18:54:00,SystemResetWarning,0837.5,5.00,000.00,029.8,028.6,000.0,038.3,031.4,28.5,-001.6,0010.94,0007.85,0007.33
2023-08-06 18:55:00,SystemResetWarning,0837.4,5.00,000.00,029.8,028.6,000.0,038.3,031.4,28.4,-000.8,0010.99,0007.90,0007.38
2023-08-06 18:56:00,SystemResetWarning,0837.4,5.01,000.00,029.8,028.7,000.0,038.3,031.4,28.3,-000.4,0011.03,0007.94,0007.44
2023-08-06 18:57:00,SystemResetWarning,0837.4,5.00,000.00,029.8,028.2,000.0,038.3,031.4,28.9,-000.6,0010.98,0007.96,0007.49
2023-08-06 18:58:00,SystemResetWarning,0837.5,4.99,000.00,029.8,026.5,000.0,038.1,031.2,28.8,-000.7,0011.01,0008.03,0007.56
2023-08-06 18:59:00,SystemResetWarning,0837.4,5.01,000.00,029.8,025.9,000.0,038.1,031.1,28.9,-000.5,0011.03,0008.08,0007.59
